This is the latest recevied weather packets stored in our database for station/object K5SVV. If no packets are shown the sender has not sent any weather packets the latest 10 day(s).
| Time | Temp. | Humidity | Pressure | Rain* | Wind** | Luminosity | Snow |
|---|---|---|---|---|---|---|---|
| 1788374089 | 35.56° C | 47% | 1013.6 hPa | 0 mm | - | 757 W/m² | - |
| 1788373785 | 35.56° C | 47% | 1013.6 hPa | 0 mm | - | 765 W/m² | - |
| 1788373481 | 35° C | 48% | 1013.7 hPa | 0 mm | - | 769 W/m² | - |
| 1788373177 | 35° C | 48% | 1013.7 hPa | 0 mm | - | 758 W/m² | - |
| 1788372872 | 35° C | 48% | 1013.8 hPa | 0 mm | - | 754 W/m² | - |
| 1788372566 | 35° C | 48% | 1014 hPa | 0 mm | - | 757 W/m² | - |
| 1788372262 | 35° C | 50% | 1014.1 hPa | 0 mm | - | 765 W/m² | - |
| 1788371952 | 35° C | 49% | 1014.1 hPa | 0 mm | - | 773 W/m² | - |
| 1788371646 | 34.44° C | 50% | 1014.6 hPa | 0 mm | - | 760 W/m² | - |
| 1788371341 | 33.89° C | 51% | 1014.6 hPa | 0 mm | - | 737 W/m² | - |
| 1788371034 | 33.89° C | 54% | 1014.7 hPa | 0 mm | - | 743 W/m² | - |
| 1788370728 | 33.89° C | 53% | 1014.8 hPa | 0 mm | - | 749 W/m² | - |
| 1788370428 | 33.89° C | 52% | 1014.6 hPa | 0 mm | - | 755 W/m² | - |
| 1788370123 | 33.89° C | 52% | 1014.5 hPa | 0 mm | - | 764 W/m² | - |
| 1788369822 | 33.33° C | 55% | 1015 hPa | 0 mm | - | 745 W/m² | - |
| 1788369512 | 33.33° C | 57% | 1015 hPa | 0 mm | - | 702 W/m² | - |
| 1788369207 | 32.78° C | 57% | 1015 hPa | 0 mm | - | 564 W/m² | - |
| 1788368904 | 32.78° C | 58% | 1015.2 hPa | 0 mm | - | 788 W/m² | - |
| 1788368599 | 32.78° C | 58% | 1015.2 hPa | 0 mm | - | 776 W/m² | - |
| 1788368294 | 32.78° C | 57% | 1015.3 hPa | 0 mm | - | 758 W/m² | - |
| 1788367993 | 33.33° C | 58% | 1015.2 hPa | 0 mm | - | 754 W/m² | - |
| 1788367707 | 32.78° C | 57% | 1015.4 hPa | 0 mm | - | 764 W/m² | - |
| 1788367382 | 32.78° C | 59% | 1015.3 hPa | 0 mm | - | 766 W/m² | - |
| 1788367072 | 33.33° C | 59% | 1015.5 hPa | 0 mm | - | 745 W/m² | - |
| 1788366771 | 32.78° C | 59% | 1015.4 hPa | 0 mm | - | 702 W/m² | - |
* Rain latest hour (hover to see other rain measurements)
** Current wind speed in m/s (hover to see current wind gust speed)